Location: Stara Lesna
(49.1528°N, 20.2911°E)
Time: 17:00:32
(UTC+02:00)

CZ-4B R/B - Pass Details

Date: 21 September 2019
Orbit: 393 x 471 km, 97.6° (Epoch: 16 October)

Event Time Altitude Azimuth Distance (km) Brightness Sun altitude
Exits shadow 04:03:30 11° 334° (NNW) 1,553 4.1 -22.6°
Drops below altitude 10° 04:03:43 10° 335° (NNW) 1,640 4.3 -22.5°
Sets 04:05:50 0° 342° (NNW) 2,516 5.3 -22.2°
